Isachsen, Nunavut

12:45 PM MDT on July 26, 2017 (GMT -0600)
Isachsen

Weather History for CWIC - September, 2013

Change the Weather History Date:

Saturday, September 28, 2013

  Actual Average Record
Temperature  
Mean Temperature 26 °F -  
Max Temperature 28 °F - - ()
Min Temperature 23 °F - - ()
Degree Days  
Heating Degree Days 40    
Moisture  
Dew Point 26 °F    
Average Humidity 98    
Maximum Humidity 99    
Minimum Humidity 95    
Precipitation  
Precipitation 0.01 in - - ()
Sea Level Pressure  
Sea Level Pressure 29.96 in    
Wind  
Wind Speed 9 mph ()    
Max Wind Speed 15 mph    
Max Gust Speed -    
T = Trace of Precipitation, MM = Missing Value Source: Averaged Metar Reports

Daily Weather History Graph

Daily Weather History Graph

Search for Another Location

Airport or City:

Trip Planner

Search our weather history database for the weather conditions in past years. The results will help you decide how hot, cold, wet, or windy it might be!

Date:

Astronomy

Sep. 28, 2013 Rise Set
Actual Time 7:12 AM MDT 6:13 PM MDT
Civil Twilight 5:24 AM MDT 8:00 PM MDT
Nautical Twilight 2:37 AM MDT 10:38 PM MDT
Astronomical Twilight Sun does not set Sun does not set
Moon No Moon Rise No Moon Set
Length of Visible Light 14h 36m
Length of Day
11h 00m
Waning Crescent, 35% of the Moon is Illuminated
Sep 28
Waning Crescent
Oct 4
New
Oct 11
First Quarter
Oct 18
Full
Oct 26
Last Quarter

Hourly Weather History & Observations

Time (MDT) Temp. Windchill Dew Point Humidity Pressure Visibility Wind Dir Wind Speed Gust Speed Precip Events Conditions
12:00 AM 28 °F - 27 °F 96% 29.95 in - SSE 5.8 mph - -  
12:00 AM 27.7 °F 21.3 °F 27.3 °F 99% 29.95 in - SSE 5.8 mph - N/A   Unknown
1:00 AM 27.9 °F 19.1 °F 27.7 °F 99% 29.96 in - SE 9.2 mph - 0.01 in   Unknown
2:00 AM 28.0 °F 17.0 °F 27.9 °F 99% 29.96 in - South 13.8 mph - N/A   Unknown
3:00 AM 27.9 °F 19.8 °F 27.7 °F 99% 29.98 in - SE 8.1 mph - N/A   Unknown
4:00 AM 27.9 °F 19.8 °F 27.7 °F 99% 29.98 in - SE 8.1 mph - N/A   Unknown
5:00 AM 27.9 °F 16.8 °F 27.7 °F 99% 29.98 in - South 13.8 mph - N/A   Unknown
6:00 AM 28 °F - 27 °F 96% 29.98 in - SSE 10.4 mph - -  
6:00 AM 27.7 °F 17.6 °F 27.5 °F 99% 29.98 in - SSE 11.5 mph - N/A   Unknown
8:00 AM 28.0 °F 17.0 °F 27.9 °F 99% 29.98 in - South 13.8 mph - N/A   Unknown
9:00 AM 27.9 °F 16.8 °F 27.5 °F 99% 29.99 in - SSE 13.8 mph - N/A   Unknown
10:00 AM 27.5 °F 17.4 °F 27.1 °F 99% 29.99 in - South 11.5 mph - N/A   Unknown
11:00 AM 27.0 °F 17.3 °F 26.6 °F 99% 29.98 in - South 10.4 mph - N/A   Unknown
12:00 PM 26 °F - 25 °F 95% 29.98 in - SSE 6.9 mph - -  
12:00 PM 25.7 °F 18.0 °F 25.3 °F 99% 29.98 in - SSE 6.9 mph - N/A   Unknown
1:00 PM 27.7 °F 18.2 °F 27.3 °F 99% 29.97 in - South 10.4 mph - N/A   Unknown
2:00 PM 26.8 °F 14.9 °F 26.4 °F 99% 29.98 in - South 15.0 mph - N/A   Unknown
3:00 PM 26.4 °F 17.3 °F 25.9 °F 98% 29.98 in - SSE 9.2 mph - N/A   Unknown
4:00 PM 26.1 °F 16.2 °F 25.7 °F 99% 29.97 in - SSE 10.4 mph - N/A   Unknown
5:00 PM 25.9 °F 16.0 °F 25.5 °F 99% 29.96 in - SSE 10.4 mph - N/A   Unknown
6:00 PM 25 °F - 24 °F 96% 29.95 in - SSE 15.0 mph - -  
6:00 PM 24.8 °F 12.4 °F 24.3 °F 98% 29.95 in - SSE 15.0 mph - N/A   Unknown
7:00 PM 24.6 °F 16.7 °F 24.1 °F 98% 29.95 in - SSE 6.9 mph - N/A   Unknown
8:00 PM 24.6 °F 13.8 °F 24.1 °F 98% 29.94 in - SSE 11.5 mph - N/A   Unknown
9:00 PM 23.7 °F 13.3 °F 23.2 °F 98% 29.94 in - SSE 10.4 mph - N/A   Unknown
10:00 PM 23.0 °F 11.1 °F 22.3 °F 97% 29.92 in - SSE 12.7 mph - N/A   Unknown
11:00 PM 23.4 °F 10.6 °F 22.8 °F 98% 29.92 in - SSE 15.0 mph - N/A   Unknown